| time (UTC) | temp F | wind direction | speed knots | gust knots | rain 1hr in | rain 24hr in | rain mn in | humidity % | barometer mb |
| 20260906061515 | 50 | 78 | 0.0 | 0.0 | 0.00 | 0.20 | 0.20 | 86 | 1017.0 |
| 20260906060024 | 51 | 78 | 0.0 | 0.9 | 0.00 | 0.20 | 0.20 | 85 | 1017.0 |
| 20260906054513 | 51 | 78 | 0.0 | 0.9 | 0.00 | 0.20 | 0.20 | 84 | 1017.1 |
| 20260906053020 | 52 | 78 | 0.0 | 0.9 | 0.00 | 0.20 | 0.20 | 83 | 1017.2 |
| 20260906051515 | 54 | 94 | 0.0 | 0.0 | 0.00 | 0.20 | 0.20 | 81 | 1017.2 |
| 20260906050029 | 54 | 94 | 0.0 | 0.9 | 0.00 | 0.20 | 0.20 | 79 | 1017.2 |
| 20260906044520 | 56 | 109 | 0.0 | 2.6 | 0.00 | 0.20 | 0.20 | 76 | 1017.2 |
| 20260906043013 | 56 | 91 | 0.0 | 1.7 | 0.00 | 0.20 | 0.20 | 74 | 1017.2 |
| 20260906041514 | 56 | 102 | 0.0 | 0.9 | 0.00 | 0.20 | 0.20 | 74 | 1017.2 |
| 20260906040013 | 56 | 148 | 0.0 | 0.0 | 0.00 | 0.20 | 0.20 | 73 | 1017.1 |
| 20260906034510 | 57 | 148 | 0.0 | 0.0 | 0.00 | 0.20 | 0.20 | 71 | 1016.9 |
| 20260906033024 | 58 | 149 | 0.0 | 0.0 | 0.00 | 0.20 | 0.20 | 71 | 1016.6 |
| 20260906031513 | 59 | 186 | 0.0 | 0.0 | 0.00 | 0.20 | 0.20 | 69 | 1016.5 |
| 20260906030012 | 60 | 186 | 0.0 | 0.0 | 0.00 | 0.20 | 0.20 | 66 | 1016.5 |
| 20260906024507 | 62 | 186 | 0.0 | 0.0 | 0.00 | 0.20 | 0.20 | 63 | 1016.4 |
| 20260906023007 | 63 | 186 | 0.0 | 0.9 | 0.00 | 0.20 | 0.20 | 59 | 1016.4 |
| 20260906021507 | 64 | 191 | 0.0 | 1.7 | 0.00 | 0.20 | 0.20 | 56 | 1016.2 |
| 20260906020006 | 66 | 174 | 0.0 | 3.5 | 0.00 | 0.20 | 0.20 | 53 | 1016.2 |
| 20260906014504 | 67 | 110 | 0.0 | 1.7 | 0.00 | 0.20 | 0.20 | 51 | 1016.3 |
| 20260906013008 | 68 | 114 | 0.0 | 2.6 | 0.00 | 0.20 | 0.20 | 50 | 1016.5 |
| 20260906011502 | 68 | 86 | 0.0 | 1.7 | 0.00 | 0.20 | 0.20 | 49 | 1016.4 |
| 20260906010001 | 68 | 101 | 0.9 | 3.5 | 0.00 | 0.20 | 0.20 | 49 | 1016.5 |
| 20260906004600 | 68 | 113 | 1.7 | 3.5 | 0.00 | 0.20 | 0.20 | 49 | 1016.5 |
| 20260906003058 | 68 | 107 | 0.9 | 4.3 | 0.00 | 0.20 | 0.20 | 49 | 1016.5 |
| 20260906001557 | 68 | 155 | 0.9 | 1.7 | 0.00 | 0.20 | 0.20 | 50 | 1016.4 |
| 20260906000056 | 68 | 108 | 1.7 | 5.2 | 0.00 | 0.20 | 0.20 | 50 | 1016.6 |
| 20260905234556 | 67 | 101 | 1.7 | 5.2 | 0.00 | 0.20 | 0.20 | 51 | 1016.8 |
| 20260905233052 | 67 | 70 | 2.6 | 6.1 | 0.00 | 0.20 | 0.20 | 52 | 1016.9 |
| 20260905231550 | 66 | 114 | 2.6 | 5.2 | 0.00 | 0.20 | 0.20 | 53 | 1017.0 |
| 20260905230053 | 66 | 115 | 0.9 | 7.0 | 0.00 | 0.20 | 0.20 | 54 | 1017.0 |
| 20260905224601 | 66 | 81 | 2.6 | 6.1 | 0.00 | 0.20 | 0.20 | 57 | 1017.2 |
| 20260905223044 | 64 | 117 | 3.5 | 7.0 | 0.00 | 0.20 | 0.20 | 58 | 1017.2 |
| 20260905221555 | 64 | 129 | 1.7 | 7.0 | 0.00 | 0.20 | 0.20 | 61 | 1017.4 |
| 20260905220041 | 63 | 102 | 2.6 | 6.1 | 0.00 | 0.20 | 0.20 | 64 | 1017.5 |
| 20260905214536 | 62 | 90 | 2.6 | 8.7 | 0.00 | 0.20 | 0.20 | 65 | 1017.7 |
| 20260905213034 | 61 | 103 | 1.7 | 7.0 | 0.00 | 0.20 | 0.20 | 68 | 1017.8 |
| 20260905211534 | 61 | 105 | 0.9 | 4.3 | 0.00 | 0.20 | 0.20 | 67 | 1018.1 |
| 20260905210033 | 61 | 113 | 1.7 | 7.0 | 0.00 | 0.20 | 0.20 | 65 | 1018.2 |
| 20260905204532 | 62 | 172 | 0.9 | 6.1 | 0.00 | 0.20 | 0.20 | 66 | 1018.2 |
| 20260905203033 | 61 | 260 | 0.9 | 7.0 | 0.00 | 0.20 | 0.20 | 70 | 1018.3 |
| 20260905201524 | 59 | 208 | 1.7 | 7.0 | 0.00 | 0.20 | 0.20 | 75 | 1018.4 |
| 20260905200025 | 58 | 103 | 0.0 | 5.2 | 0.00 | 0.20 | 0.20 | 79 | 1018.5 |
| 20260905194521 | 58 | 207 | 0.0 | 4.3 | 0.00 | 0.20 | 0.20 | 82 | 1018.7 |
| 20260905193017 | 57 | 108 | 1.7 | 3.5 | 0.03 | 0.20 | 0.20 | 88 | 1018.8 |
| 20260905191514 | 55 | 73 | 0.9 | 3.5 | 0.05 | 0.20 | 0.20 | 90 | 1018.9 |
| 20260905190013 | 54 | 111 | 0.9 | 3.5 | 0.05 | 0.20 | 0.20 | 90 | 1018.7 |
| 20260905184513 | 54 | 82 | 1.7 | 4.3 | 0.05 | 0.20 | 0.20 | 90 | 1018.9 |
| 20260905183012 | 54 | 103 | 1.7 | 6.1 | 0.04 | 0.17 | 0.17 | 89 | 1019.0 |
| 20260905181510 | 54 | 127 | 0.0 | 0.9 | 0.03 | 0.15 | 0.15 | 89 | 1019.3 |
| 20260905180010 | 54 | 176 | 0.0 | 0.0 | 0.04 | 0.15 | 0.15 | 88 | 1019.4 |
| 20260905174508 | 54 | 176 | 0.0 | 0.9 | 0.03 | 0.14 | 0.14 | 87 | 1019.3 |
| 20260905173007 | 54 | 205 | 0.0 | 0.9 | 0.01 | 0.12 | 0.12 | 87 | 1019.3 |
| 20260905171506 | 54 | 100 | 0.0 | 0.0 | 0.01 | 0.12 | 0.12 | 85 | 1019.3 |
| 20260905170006 | 54 | 100 | 0.0 | 1.7 | 0.00 | 0.11 | 0.11 | 85 | 1019.0 |
| 20260905164503 | 53 | 111 | 0.0 | 3.5 | 0.00 | 0.11 | 0.11 | 86 | 1019.0 |
| 20260905163002 | 53 | 134 | 0.0 | 3.5 | 0.00 | 0.11 | 0.11 | 86 | 1018.9 |
| 20260905161501 | 52 | 111 | 0.0 | 2.6 | 0.00 | 0.11 | 0.11 | 89 | 1018.8 |
| 20260905160134 | 52 | 110 | 0.0 | 1.7 | 0.00 | 0.11 | 0.11 | 91 | 1018.7 |
| 20260905154603 | 51 | 69 | 0.0 | 1.7 | 0.01 | 0.11 | 0.11 | 91 | 1018.6 |
| 20260905153058 | 51 | 69 | 0.0 | 0.9 | 0.05 | 0.11 | 0.11 | 92 | 1018.7 |
| 20260905151603 | 51 | 69 | 0.0 | 1.7 | 0.07 | 0.11 | 0.11 | 91 | 1018.8 |
| 20260905150055 | 50 | 94 | 0.9 | 4.3 | 0.07 | 0.11 | 0.11 | 90 | 1018.7 |
| 20260905144553 | 51 | 38 | 1.7 | 5.2 | 0.07 | 0.11 | 0.10 | 90 | 1018.6 |
| 20260905143153 | 51 | 123 | 2.6 | 4.3 | 0.03 | 0.07 | 0.06 | 89 | 1018.5 |
| 20260905141549 | 51 | 110 | 1.7 | 3.5 | 0.02 | 0.05 | 0.04 | 88 | 1018.6 |
| 20260905140047 | 51 | 103 | 0.0 | 2.6 | 0.03 | 0.05 | 0.04 | 88 | 1018.3 |
| 20260905134544 | 51 | 121 | 0.0 | 2.6 | 0.02 | 0.04 | 0.03 | 86 | 1018.1 |
| 20260905133043 | 51 | 115 | 0.0 | 0.9 | 0.02 | 0.04 | 0.03 | 86 | 1017.8 |
| 20260905131541 | 52 | 111 | 0.9 | 2.6 | 0.01 | 0.03 | 0.02 | 84 | 1017.9 |
| 20260905130040 | 52 | 80 | 1.7 | 4.3 | 0.00 | 0.02 | 0.01 | 83 | 1017.8 |
| 20260905124640 | 52 | 97 | 1.7 | 5.2 | 0.00 | 0.02 | 0.01 | 83 | 1017.4 |
| 20260905123037 | 52 | 102 | 0.0 | 0.9 | 0.00 | 0.02 | 0.01 | 84 | 1017.5 |
| 20260905121536 | 52 | 84 | 0.0 | 0.0 | 0.00 | 0.02 | 0.01 | 85 | 1017.6 |
| 20260905120035 | 52 | 127 | 0.0 | 1.7 | 0.00 | 0.02 | 0.01 | 84 | 1017.4 |
| 20260905114534 | 51 | 77 | 0.0 | 0.9 | 0.00 | 0.02 | 0.01 | 86 | 1017.4 |
| 20260905113032 | 51 | 77 | 0.0 | 0.9 | 0.01 | 0.02 | 0.01 | 87 | 1017.4 |
| 20260905111532 | 51 | 77 | 0.0 | 0.0 | 0.01 | 0.02 | 0.01 | 86 | 1017.2 |
| 20260905110129 | 51 | 77 | 0.0 | 0.9 | 0.01 | 0.02 | 0.01 | 86 | 1017.2 |
| 20260905104526 | 52 | 69 | 0.0 | 1.7 | 0.01 | 0.02 | 0.01 | 84 | 1017.1 |
| 20260905103027 | 52 | 89 | 0.0 | 0.9 | 0.00 | 0.01 | 0.00 | 80 | 1017.1 |
| 20260905101523 | 53 | 64 | 0.0 | 0.9 | 0.00 | 0.01 | 0.00 | 79 | 1017.1 |
| 20260905100022 | 53 | 110 | 0.0 | 0.9 | 0.00 | 0.01 | 0.00 | 79 | 1017.0 |
| 20260905094527 | 53 | 90 | 0.0 | 0.9 | 0.00 | 0.01 | 0.00 | 79 | 1017.1 |
| 20260905093020 | 53 | 110 | 0.0 | 0.9 | 0.00 | 0.01 | 0.00 | 79 | 1017.0 |
| 20260905091625 | 53 | 110 | 0.0 | 0.9 | 0.00 | 0.01 | 0.00 | 79 | 1017.1 |
| 20260905090018 | 53 | 82 | 0.0 | 0.9 | 0.00 | 0.01 | 0.00 | 79 | 1017.0 |
| 20260905084515 | 53 | 84 | 0.0 | 0.9 | 0.00 | 0.01 | 0.00 | 79 | 1016.9 |
| 20260905083012 | 54 | 109 | 0.0 | 0.0 | 0.00 | 0.01 | 0.00 | 77 | 1016.8 |
| 20260905081511 | 54 | 109 | 0.0 | 0.9 | 0.00 | 0.01 | 0.00 | 77 | 1016.7 |
| 20260905080009 | 54 | 99 | 0.0 | 0.9 | 0.00 | 0.01 | 0.00 | 76 | 1016.6 |
| 20260905074511 | 55 | 100 | 0.0 | 0.9 | 0.00 | 0.01 | 0.00 | 76 | 1016.5 |
| 20260905073104 | 55 | 111 | 0.0 | 0.9 | 0.00 | 0.01 | 0.00 | 76 | 1016.3 |
| 20260905071503 | 55 | 133 | 0.0 | 0.9 | 0.00 | 0.01 | 0.00 | 76 | 1016.1 |
| 20260905070002 | 55 | 184 | 0.0 | 0.9 | 0.00 | 0.01 | 0.00 | 76 | 1016.1 |
| 20260905064559 | 54 | 86 | 0.0 | 0.0 | 0.00 | 0.01 | 0.01 | 76 | 1016.0 |
| 20260905063100 | 56 | 109 | 0.0 | 0.9 | 0.00 | 0.01 | 0.01 | 72 | 1015.9 |